Location: Shepherdstown, WV
(39.4326°N, 77.8042°W)
Time: 06:53:55
(UTC-04:00)

Vanguard 2 Rocket - Pass Details

Date: 06 August 2021
Orbit: 556 x 3324 km, 32.9° (Epoch: 21 September)

Event Time Altitude Azimuth Distance (km) Brightness Sun altitude
Exits shadow 05:25:08 - 212° (SSW) 3,471 9.3 -9.6°
Reaches altitude 10° 05:26:30 10° 206° (SSW) 3,032 9.1 -9.3°
Maximum altitude 05:31:08 19° 164° (SSE) 1,977 8.5 -8.6°
Drops below altitude 10° 05:34:39 10° 119° (ESE) 2,204 9.3 -8.0°
Sets 05:37:17 0° 99° (E) 2,922 10.4 -7.5°
